San Angelo, TX

6:59 AM CST on December 15, 2017 (GMT -0600)
San Angelo Regional-Mathis

Weather History for KSJT - March, 2012

Change the Weather History Date:

Thursday, March 15, 2012

  Actual Average Record
Temperature  
Mean Temperature 63 °F 58 °F  
Max Temperature 73 °F 71 °F 92 °F (1908)
Min Temperature 53 °F 44 °F 22 °F (1962)
Degree Days  
Heating Degree Days 2 8  
Month to date heating degree days 114 151  
Since 1 July heating degree days 1840 2112  
Cooling Degree Days 0 1  
Month to date cooling degree days 9 12  
Year to date cooling degree days 19 17  
Growing Degree Days 13 (Base 50)    
Moisture  
Dew Point 57 °F    
Average Humidity 81    
Maximum Humidity 93    
Minimum Humidity 68    
Precipitation  
Precipitation 0.00 in 0.05 in 1.01 in (1998)
Month to date precipitation 1.09 0.75  
Year to date precipitation 7.09 3.03  
Snow  
Snow 0.00 in 0.00 in 0.40 in (1962)
Month to date snowfall T 0.1  
Since 1 July snowfall 3.1 2.2  
Snow Depth 0.00 in    
Sea Level Pressure  
Sea Level Pressure 30.05 in    
Wind  
Wind Speed 5 mph (SSE)    
Max Wind Speed 15 mph    
Max Gust Speed 20 mph    
Visibility 7 miles    
Events Fog    
T = Trace of Precipitation, MM = Missing Value Source: NWS Daily Summary

Daily Weather History Graph

Daily Weather History Graph

Search for Another Location

Airport or City:

Trip Planner

Search our weather history database for the weather conditions in past years. The results will help you decide how hot, cold, wet, or windy it might be!

Date:

Astronomy

Mar. 15, 2012 Rise Set
Actual Time 7:51 AM CDT 7:50 PM CDT
Civil Twilight 7:27 AM CDT 8:14 PM CDT
Nautical Twilight 6:59 AM CDT 8:42 PM CDT
Astronomical Twilight 6:30 AM CDT 9:11 PM CDT
Moon 2:59 AM CDT 1:30 PM CDT
Length of Visible Light 12h 47m
Length of Day
11h 59m
Last Quarter, 43% of the Moon is Illuminated
Mar 15
Last Quarter
Mar 22
New
Mar 30
First Quarter
Apr 6
Full
Apr 13
Last Quarter

Hourly Weather History & Observations

Time (CDT) Temp. Dew Point Humidity Pressure Visibility Wind Dir Wind Speed Gust Speed Precip Events Conditions
12:51 AM 61.0 °F 57.0 °F 87% 30.01 in 9.0 mi SE 4.6 mph - N/A   Scattered Clouds
1:51 AM 60.8 °F 57.2 °F 88% 30.04 in 10.0 mi SE 4.6 mph - N/A   Clear
2:51 AM 60.1 °F 55.9 °F 86% 30.01 in 8.0 mi Calm Calm - N/A   Overcast
3:51 AM 60.1 °F 55.9 °F 86% 30.02 in 8.0 mi Calm Calm - N/A   Partly Cloudy
4:51 AM 55.9 °F 53.1 °F 90% 30.01 in 6.0 mi Calm Calm - N/A   Clear
5:32 AM 53.6 °F 51.8 °F 94% 30.04 in 1.8 mi Calm Calm - N/A   Partly Cloudy
5:43 AM 53.6 °F 51.8 °F 94% 30.05 in 0.5 mi Calm Calm - N/A Fog Fog
5:46 AM 53.6 °F 51.8 °F 94% 30.05 in 0.2 mi Calm Calm - N/A Fog Fog
5:51 AM 54.0 °F 51.1 °F 90% 30.02 in 0.2 mi Calm Calm - N/A Fog Fog
6:04 AM 55.4 °F 51.8 °F 88% 30.05 in 0.5 mi NE 3.5 mph - N/A Fog Fog
6:51 AM 54.0 °F 51.1 °F 90% 30.03 in 0.5 mi East 4.6 mph - N/A Fog Fog
7:09 AM 55.4 °F 51.8 °F 88% 30.07 in 0.5 mi Calm Calm - N/A Fog Fog
7:51 AM 55.0 °F 52.0 °F 89% 30.05 in 0.2 mi Calm Calm - N/A Fog Fog
8:10 AM 55.4 °F 51.8 °F 88% 30.09 in 0.2 mi Calm Calm - N/A Fog Fog
8:21 AM 55.4 °F 53.6 °F 94% 30.09 in 0.8 mi Calm Calm - N/A   Scattered Clouds
8:25 AM 55.4 °F 53.6 °F 94% 30.09 in 2.0 mi Calm Calm - N/A   Scattered Clouds
8:27 AM 55.4 °F 53.6 °F 94% 30.09 in 3.0 mi Calm Calm - N/A   Mostly Cloudy
8:37 AM 57.2 °F 55.4 °F 94% 30.10 in 7.0 mi Calm Calm - N/A   Scattered Clouds
8:51 AM 57.9 °F 55.9 °F 93% 30.07 in 9.0 mi Calm Calm - N/A   Mostly Cloudy
9:51 AM 64.0 °F 60.1 °F 87% 30.09 in 10.0 mi South 6.9 mph - N/A   Overcast
10:27 AM 64.4 °F 60.8 °F 88% 30.13 in 10.0 mi South 9.2 mph - N/A   Overcast
10:51 AM 66.0 °F 60.1 °F 81% 30.10 in 10.0 mi South 11.5 mph - N/A   Overcast
11:51 AM 66.9 °F 61.0 °F 81% 30.10 in 10.0 mi South 10.4 mph - N/A   Overcast
12:51 PM 68.0 °F 62.1 °F 81% 30.09 in 10.0 mi South 9.2 mph 19.6 mph N/A   Overcast
1:22 PM 69.8 °F 62.6 °F 78% 30.12 in 10.0 mi SSW 11.5 mph - N/A   Overcast
1:51 PM 70.0 °F 63.0 °F 78% 30.07 in 10.0 mi South 11.5 mph 18.4 mph N/A   Overcast
2:51 PM 71.1 °F 63.0 °F 75% 30.05 in 10.0 mi South 9.2 mph - N/A   Overcast
3:51 PM 72.0 °F 63.0 °F 73% 30.02 in 10.0 mi South 11.5 mph - N/A   Overcast
4:51 PM 73.0 °F 63.0 °F 71% 30.00 in 10.0 mi South 11.5 mph - N/A   Overcast
5:51 PM 72.0 °F 62.1 °F 71% 30.00 in 10.0 mi South 10.4 mph - N/A   Overcast
6:38 PM 71.6 °F 62.6 °F 73% 30.03 in 10.0 mi South 6.9 mph - N/A   Overcast
6:51 PM 72.0 °F 61.0 °F 68% 30.00 in 10.0 mi South 6.9 mph - N/A   Overcast
7:51 PM 71.1 °F 61.0 °F 70% 30.01 in 10.0 mi Calm Calm - N/A   Mostly Cloudy
8:51 PM 66.9 °F 59.0 °F 76% 30.04 in 10.0 mi Calm Calm - N/A   Clear
9:51 PM 64.0 °F 59.0 °F 84% 30.04 in 10.0 mi ENE 3.5 mph - N/A   Clear
10:51 PM 64.0 °F 59.0 °F 84% 30.04 in 10.0 mi Calm Calm - N/A   Clear
11:51 PM 61.0 °F 57.0 °F 87% 30.04 in 10.0 mi Calm Calm - N/A   Clear